Location: Kalberh�ni
(46.4610°N, 7.2453°E)
Time: 18:33:29
(UTC+00:00)

Meteor 2-1 Rocket - Pass Details

Date: 29 October 2021
Orbit: 830 x 906 km, 81.3° (Epoch: 28 November)

Event Time Altitude Azimuth Distance (km) Brightness Sun altitude
Rises 04:03:38 0° 0° (N) 3,389 7.4 -22.0°
Reaches altitude 10° 04:06:47 10° 19° (NNE) 2,456 6.9 -21.4°
Maximum altitude 04:10:39 19° 63° (ENE) 1,908 6.8 -20.7°
Drops below altitude 10° 04:14:32 10° 107° (ESE) 2,469 7.7 -20.1°
Sets 04:17:42 0° 125° (SE) 3,412 8.2 -19.5°
